Location: Lake Harris Campground
(43.9775°N, 74.1317°W)
Time: 00:01:22
(UTC-05:00)

ISS - All Passes

Search period start: 02 March 2015 00:00
Search period end: 12 March 2015 01:00
Orbit: 397 x 407 km, 51.6° (Epoch: 01 March)

Date Brightness Start Highest point End Pass type
(mag) Time Alt. Az. Time Alt. Az. Time Alt. Az.
02 Mar - 08:27:55 10° S 08:30:25 21° SE 08:32:58 10° E daylight
02 Mar - 10:03:27 10° WSW 10:06:38 55° NNW 10:09:50 10° NE daylight
02 Mar - 11:40:57 10° WNW 11:43:33 22° N 11:46:09 10° NE daylight
02 Mar - 13:17:57 10° NW 13:20:42 25° NNE 13:23:28 10° ENE daylight
02 Mar - 14:54:13 10° WNW 14:57:28 88° NE 15:00:43 10° ESE daylight
02 Mar - 16:31:59 10° WSW 16:33:30 13° SW 16:34:55 10° SSW daylight
03 Mar - 07:36:29 10° SSE 07:37:36 12° SE 07:38:50 10° ESE daylight
03 Mar - 09:10:22 10° SW 09:13:36 87° SSE 09:16:51 10° ENE daylight
03 Mar - 10:47:34 10° WNW 10:50:20 25° NNW 10:53:06 10° NE daylight
03 Mar - 12:24:54 10° NW 12:27:28 21° N 12:30:04 10° ENE daylight
03 Mar - 14:01:14 10° NW 14:04:24 52° NNE 14:07:35 10° ESE daylight
03 Mar - 15:38:01 10° W 15:40:40 23° SW 15:43:16 10° S daylight
04 Mar - 08:17:31 10° SW 08:20:37 46° SE 08:23:44 10° ENE daylight
04 Mar - 09:54:09 10° W 09:57:07 33° NNW 10:00:06 10° NE daylight
04 Mar - 11:31:41 10° NW 11:34:12 20° N 11:36:43 10° NE daylight
04 Mar - 13:08:15 10° NW 13:11:16 34° NNE 13:14:17 10° E daylight
04 Mar - 14:44:39 10° WNW 14:47:45 42° SW 14:50:49 10° SSE daylight
05 Mar - 07:24:58 10° SSW 07:27:40 25° SE 07:30:24 10° E daylight
05 Mar - 09:00:48 10° WSW 09:03:57 48° NNW 09:07:06 10° NE daylight
05 Mar - 10:38:20 10° WNW 10:40:54 21° N 10:43:28 10° NE daylight
05 Mar - 12:15:15 10° NW 12:18:02 26° NNE 12:20:51 10° ENE daylight
05 Mar - 13:51:29 10° WNW 13:54:45 79° SSW 13:57:58 10° SE daylight
05 Mar - 15:29:58 10° WSW 15:30:42 10° SW 15:31:19 10° SW daylight
06 Mar - 06:33:05 10° SSE 06:34:46 14° SE 06:36:32 10° E daylight
06 Mar - 08:07:35 10° WSW 08:10:49 81° NNW 08:14:04 10° ENE daylight
06 Mar - 09:44:53 10° WNW 09:47:36 24° NNW 09:50:19 10° NE daylight
06 Mar - 11:22:07 10° NW 11:24:44 22° N 11:27:22 10° ENE daylight
06 Mar - 12:58:25 10° NW 13:01:37 59° NNE 13:04:50 10° ESE daylight
06 Mar - 14:35:22 10° W 14:37:49 19° SW 14:40:12 10° S daylight
07 Mar - 07:14:34 10° SW 07:17:44 55° SE 07:20:54 10° ENE daylight
07 Mar - 08:51:23 10° W 08:54:18 30° NNW 08:57:13 10° NE daylight
07 Mar - 10:28:52 10° NW 10:31:24 20° N 10:33:55 10° NE daylight
07 Mar - 12:05:22 10° NW 12:08:25 38° NNE 12:11:28 10° E daylight
07 Mar - 13:41:50 10° WNW 13:44:50 35° SW 13:47:50 10° SSE daylight
08 Mar - 07:21:51 10° SSW 07:24:41 29° SE 07:27:34 10° ENE daylight
08 Mar - 08:57:55 10° W 09:01:02 43° NNW 09:04:08 10° NE daylight
08 Mar - 10:35:28 10° NW 10:38:01 21° N 10:40:33 10° NE daylight
08 Mar - 12:12:16 10° NW 12:15:08 28° NNE 12:17:59 10° ENE daylight
08 Mar - 13:48:32 10° WNW 13:51:46 68° SW 13:54:59 10° SE daylight
09 Mar - 06:29:39 10° S 06:31:42 16° SE 06:33:48 10° E visible
09 Mar - 08:04:35 10° WSW 08:07:48 71° NNW 08:11:02 10° NE daylight
09 Mar - 09:41:57 10° WNW 09:44:37 23° N 09:47:18 10° NE daylight
09 Mar - 11:19:07 10° NW 11:21:46 23° N 11:24:26 10° ENE daylight
09 Mar - 12:55:22 10° NW 12:58:36 68° NNE 13:01:49 10° ESE daylight
09 Mar - 14:32:31 10° W 14:34:43 17° SW 14:36:51 10° S daylight
10 Mar - 07:11:25 10° SW 07:14:37 65° SE 07:17:50 10° ENE daylight
10 Mar - 08:48:22 10° W 08:51:14 28° NNW 08:54:07 10° NE daylight
10 Mar - 10:25:49 10° NW 10:28:21 21° N 10:30:53 10° NE daylight
10 Mar - 12:02:14 10° NW 12:05:20 42° NNE 12:08:26 10° E daylight
10 Mar - 13:38:47 10° WNW 13:41:41 30° SW 13:44:34 10° SSE daylight
11 Mar - 06:18:32 10° SSW 06:21:29 34° SE 06:24:28 10° ENE visible
11 Mar - 07:54:48 10° W 07:57:53 39° NNW 08:00:56 10° NE daylight
11 Mar - 09:32:22 10° NW 09:34:53 20° N 09:37:25 10° NE daylight
11 Mar - 11:09:05 10° NW 11:11:59 30° NNE 11:14:53 10° E daylight
11 Mar - 12:45:22 10° WNW 12:48:33 58° SW 12:51:44 10° SE daylight
